Weather History for KCGS - February, 2013

Change the Weather History Date:

Sunday, February 17, 2013

  Actual Average Record
Temperature  
Mean Temperature 30 °F -  
Max Temperature 34 °F 45 °F 74 °F (1976)
Min Temperature 27 °F 27 °F 3 °F (1958)
Degree Days  
Heating Degree Days 34    
Moisture  
Dew Point 13 °F    
Average Humidity 47    
Maximum Humidity 60    
Minimum Humidity 36    
Precipitation  
Precipitation 0.00 in - - ()
Sea Level Pressure  
Sea Level Pressure 29.98 in    
Wind  
Wind Speed 11 mph (WNW)    
Max Wind Speed 21 mph    
Max Gust Speed 33 mph    
Visibility 10 miles    
Events      
Averages and records for this station are not official NWS values.
T = Trace of Precipitation, MM = Missing Value Source: NWS Daily Summary

Daily Weather History Graph

Daily Weather History Graph

Search for Another Location

Airport or City:

Trip Planner

Search our weather history database for the weather conditions in past years. The results will help you decide how hot, cold, wet, or windy it might be!

Date:

Astronomy

Feb. 17, 2013 Rise Set
Actual Time 6:56 AM EST 5:47 PM EST
Civil Twilight 6:29 AM EST 6:14 PM EST
Nautical Twilight 5:57 AM EST 6:46 PM EST
Astronomical Twilight 5:26 AM EST 7:16 PM EST
Moon 10:51 AM EST (2/17) 12:37 AM EST (2/17)
Length of Visible Light 11h 45m
Length of Day
10h 51m
Waxing Crescent, 49% of the Moon is Illuminated
Feb 17
Waxing Crescent
Feb 17
First Quarter
Feb 25
Full
Mar 4
Last Quarter
Mar 11
New

Hourly Weather History & Observations

Time (EST) Temp. Windchill Dew Point Humidity Pressure Visibility Wind Dir Wind Speed Gust Speed Precip Events Conditions
12:15 AM 34.0 °F 25.5 °F 19.8 °F 56% 29.84 in 10.0 mi NW 11.5 mph 18.4 mph N/A   Mostly Cloudy
12:35 AM 33.3 °F 25.7 °F 19.6 °F 57% 29.84 in 10.0 mi NW 9.2 mph 16.1 mph N/A   Scattered Clouds
12:55 AM 32.9 °F 24.1 °F 19.8 °F 59% 29.84 in 10.0 mi NW 11.5 mph 17.3 mph N/A   Clear
1:15 AM 32.4 °F 22.5 °F 19.4 °F 59% 29.84 in 10.0 mi NW 13.8 mph 18.4 mph N/A   Clear
1:35 AM 32.0 °F 25.6 °F 19.4 °F 60% 29.85 in 10.0 mi NW 6.9 mph - N/A   Clear
1:55 AM 32.0 °F 24.2 °F 19.0 °F 59% 29.85 in 10.0 mi NW 9.2 mph - N/A   Clear
2:15 AM 32.0 °F 23.6 °F 18.9 °F 58% 29.84 in 10.0 mi NNW 10.4 mph - N/A   Clear
2:35 AM 32.0 °F 24.2 °F 18.3 °F 57% 29.85 in 10.0 mi NW 9.2 mph 16.1 mph N/A   Clear
2:55 AM 31.8 °F 23.9 °F 18.1 °F 57% 29.85 in 10.0 mi NW 9.2 mph - N/A   Clear
3:15 AM 31.5 °F 24.2 °F 18.1 °F 58% 29.85 in 10.0 mi NW 8.1 mph 16.1 mph N/A   Clear
3:35 AM 31.1 °F 22.4 °F 18.1 °F 59% 29.85 in 10.0 mi NW 10.4 mph 18.4 mph N/A   Clear
3:55 AM 30.9 °F 24.3 °F 18.0 °F 59% 29.85 in 10.0 mi NNW 6.9 mph - N/A   Clear
4:15 AM 30.4 °F 22.9 °F 17.6 °F 59% 29.85 in 10.0 mi NNW 8.1 mph 16.1 mph N/A   Clear
4:35 AM 30.2 °F 20.8 °F 17.4 °F 59% 29.86 in 10.0 mi NNW 11.5 mph 16.1 mph N/A   Clear
4:55 AM 30.0 °F 24.1 °F 17.6 °F 60% 29.86 in 10.0 mi NW 5.8 mph - N/A   Clear
5:15 AM 29.8 °F 21.5 °F 17.2 °F 59% 29.87 in 10.0 mi NW 9.2 mph - N/A   Clear
5:35 AM 29.7 °F 22.8 °F 16.5 °F 58% 29.87 in 10.0 mi WNW 6.9 mph - N/A   Clear
5:55 AM 29.5 °F 21.8 °F 15.4 °F 56% 29.87 in 10.0 mi NW 8.1 mph - N/A   Clear
6:15 AM 29.3 °F 22.3 °F 14.9 °F 55% 29.88 in 10.0 mi WNW 6.9 mph - N/A   Clear
6:35 AM 28.9 °F 19.8 °F 15.3 °F 57% 29.88 in 10.0 mi WNW 10.4 mph - N/A   Clear
6:55 AM 28.4 °F 20.4 °F 15.8 °F 59% 29.89 in 10.0 mi West 8.1 mph - N/A   Clear
7:15 AM 28.6 °F 22.4 °F 14.9 °F 57% 29.90 in 10.0 mi WNW 5.8 mph - N/A   Clear
7:55 AM 29.5 °F 21.8 °F 15.6 °F 56% 29.91 in 10.0 mi West 8.1 mph - N/A   Clear
8:15 AM 30.6 °F 23.1 °F 15.3 °F 53% 29.91 in 10.0 mi West 8.1 mph 19.6 mph N/A   Scattered Clouds
8:35 AM 30.0 °F 22.4 °F 13.8 °F 51% 29.92 in 10.0 mi WNW 8.1 mph 17.3 mph N/A   Scattered Clouds
8:55 AM 30.6 °F 23.1 °F 14.2 °F 51% 29.93 in 10.0 mi NW 8.1 mph - N/A   Scattered Clouds
9:15 AM 32.0 °F 21.2 °F 13.5 °F 46% 29.93 in 10.0 mi NW 16.1 mph 19.6 mph N/A   Clear
9:35 AM 32.0 °F 22.1 °F 12.4 °F 44% 29.94 in 10.0 mi WNW 13.8 mph 20.7 mph N/A   Scattered Clouds
9:55 AM 32.2 °F 22.3 °F 12.0 °F 43% 29.94 in 10.0 mi NW 13.8 mph 21.9 mph N/A   Scattered Clouds
10:15 AM 32.9 °F 24.1 °F 12.6 °F 43% 29.95 in 10.0 mi NW 11.5 mph 23.0 mph N/A   Scattered Clouds
10:35 AM 33.4 °F 23.9 °F 13.3 °F 43% 29.95 in 10.0 mi WNW 13.8 mph 25.3 mph N/A   Scattered Clouds
10:55 AM 32.4 °F 23.0 °F 12.4 °F 44% 29.96 in 10.0 mi NW 12.7 mph 24.2 mph N/A   Scattered Clouds
11:15 AM 32.5 °F 20.5 °F 11.3 °F 41% 29.96 in 10.0 mi WNW 20.7 mph 26.5 mph N/A   Mostly Cloudy
11:35 AM 33.3 °F 23.2 °F 10.8 °F 39% 29.96 in 10.0 mi West 15.0 mph 27.6 mph N/A   Scattered Clouds
11:55 AM 34.0 °F 23.8 °F 10.8 °F 38% 29.96 in 10.0 mi NW 16.1 mph 25.3 mph N/A   Mostly Cloudy
12:15 PM 32.7 °F 22.5 °F 9.1 °F 37% 29.96 in 10.0 mi NW 15.0 mph 26.5 mph N/A   Mostly Cloudy
12:55 PM 32.5 °F 23.2 °F 10.8 °F 40% 29.97 in 10.0 mi WNW 12.7 mph 25.3 mph N/A   Overcast
1:15 PM 32.7 °F 23.9 °F 12.6 °F 43% 29.97 in 10.0 mi WNW 11.5 mph 19.6 mph N/A   Overcast
1:35 PM 32.4 °F 23.0 °F 11.3 °F 42% 29.97 in 10.0 mi WNW 12.7 mph 21.9 mph N/A   Overcast
1:55 PM 32.9 °F 22.4 °F 9.5 °F 38% 29.97 in 10.0 mi WNW 16.1 mph 26.5 mph N/A   Overcast
2:15 PM 34.2 °F 22.6 °F 9.7 °F 36% 29.97 in 10.0 mi WNW 20.7 mph 32.2 mph N/A   Overcast
2:35 PM 33.6 °F 23.3 °F 9.1 °F 36% 29.97 in 10.0 mi West 16.1 mph 24.2 mph N/A   Mostly Cloudy
2:55 PM 33.8 °F 23.2 °F 10.0 °F 37% 29.98 in 10.0 mi West 17.3 mph 31.1 mph N/A   Overcast
3:15 PM 34.0 °F 23.0 °F 10.2 °F 37% 29.98 in 10.0 mi WNW 18.4 mph 29.9 mph N/A   Mostly Cloudy
3:35 PM 32.4 °F 21.3 °F 8.2 °F 36% 29.99 in 10.0 mi West 17.3 mph 29.9 mph N/A   Mostly Cloudy
3:55 PM 32.0 °F 21.6 °F 9.3 °F 39% 30.00 in 10.0 mi West 15.0 mph 23.0 mph N/A   Overcast
4:15 PM 32.0 °F 20.8 °F 9.1 °F 38% 30.01 in 10.0 mi West 17.3 mph 31.1 mph N/A   Overcast
4:35 PM 32.0 °F 22.1 °F 9.3 °F 39% 30.02 in 10.0 mi WNW 13.8 mph 26.5 mph N/A   Overcast
4:55 PM 32.0 °F 20.5 °F 8.4 °F 37% 30.03 in 10.0 mi WNW 18.4 mph 31.1 mph N/A   Overcast
5:15 PM 31.8 °F 20.2 °F 8.4 °F 38% 30.04 in 10.0 mi WNW 18.4 mph 27.6 mph N/A   Overcast
5:35 PM 31.3 °F 19.2 °F 7.7 °F 37% 30.05 in 10.0 mi West 19.6 mph 33.4 mph N/A   Overcast
5:55 PM 30.9 °F 19.8 °F 7.3 °F 37% 30.06 in 10.0 mi West 16.1 mph 25.3 mph N/A   Mostly Cloudy
6:15 PM 30.7 °F 21.4 °F 7.2 °F 37% 30.07 in 10.0 mi West 11.5 mph 24.2 mph N/A   Mostly Cloudy
6:35 PM 30.2 °F 19.3 °F 7.5 °F 39% 30.08 in 10.0 mi WNW 15.0 mph 23.0 mph N/A   Mostly Cloudy
6:55 PM 30.0 °F 18.7 °F 7.5 °F 39% 30.09 in 10.0 mi WNW 16.1 mph 21.9 mph N/A   Scattered Clouds
7:20 PM 29.8 °F 19.8 °F 7.7 °F 39% 30.10 in 10.0 mi WNW 12.7 mph 17.3 mph N/A   Scattered Clouds
7:40 PM 29.7 °F 19.1 °F 8.4 °F 41% 30.11 in 10.0 mi West 13.8 mph 19.6 mph N/A   Scattered Clouds
8:00 PM 29.3 °F 20.8 °F 8.6 °F 42% 30.12 in 10.0 mi West 9.2 mph 21.9 mph N/A   Scattered Clouds
8:20 PM 29.3 °F 20.8 °F 9.3 °F 43% 30.13 in 10.0 mi West 9.2 mph 19.6 mph N/A   Clear
8:40 PM 28.9 °F 18.6 °F 9.5 °F 44% 30.14 in 10.0 mi WNW 12.7 mph 28.8 mph N/A   Clear
9:00 PM 28.4 °F 17.5 °F 10.9 °F 48% 30.15 in 10.0 mi West 13.8 mph 18.4 mph N/A   Clear
9:20 PM 28.4 °F 19.7 °F 11.3 °F 49% 30.16 in 10.0 mi WNW 9.2 mph 21.9 mph N/A   Clear
9:40 PM 28.2 °F 20.2 °F 10.9 °F 48% 30.17 in 10.0 mi NW 8.1 mph 17.3 mph N/A   Scattered Clouds
10:00 PM 28.0 °F 19.3 °F 10.4 °F 48% 30.18 in 10.0 mi NW 9.2 mph - N/A   Scattered Clouds
10:20 PM 28.0 °F 18.6 °F 10.0 °F 47% 30.19 in 10.0 mi WNW 10.4 mph 18.4 mph N/A   Scattered Clouds
10:40 PM 28.2 °F 17.2 °F 8.6 °F 44% 30.20 in 10.0 mi NW 13.8 mph 25.3 mph N/A   Mostly Cloudy
11:00 PM 28.0 °F 18.1 °F 8.6 °F 44% 30.19 in 10.0 mi WNW 11.5 mph 23.0 mph N/A   Mostly Cloudy
11:20 PM 27.5 °F 16.8 °F 8.8 °F 45% 30.20 in 10.0 mi NW 12.7 mph 19.6 mph N/A   Scattered Clouds
11:40 PM 27.5 °F 18.0 °F 8.1 °F 44% 30.21 in 10.0 mi NW 10.4 mph 23.0 mph N/A   Scattered Clouds